Time,TemperatureF,DewpointF,PressureIn,WindDirection,WindDirectionDegrees,WindSpeedMPH,WindSpeedGustMPH,Humidity,HourlyPrecipIn,Conditions,Clouds,dailyrainin,SolarRadiationWatts/m^2,SoftwareType,DateUTC
2013-11-24 00:52:00,40.1,31.8,30.24,NNW,335,0.0,0.0,72,0.00,,OVC018,0.00,0.00,VWS V14.00,2013-11-24 05:52:00,
2013-11-24 01:52:00,38.1,31.2,30.25,NW,324,0.0,2.0,76,0.00,,OVC018,0.00,0.00,VWS V14.00,2013-11-24 06:52:00,
2013-11-24 02:52:00,37.8,31.2,30.28,NNW,340,0.0,0.0,77,0.00,,OVC018,0.00,0.00,VWS V14.00,2013-11-24 07:52:00,
2013-11-24 03:52:00,33.8,30.4,30.31,NNW,340,0.0,0.0,87,0.00,,OVC018,0.00,0.00,VWS V14.00,2013-11-24 08:52:00,
2013-11-24 04:52:00,32.9,30.0,30.34,NNW,340,0.0,0.0,89,0.00,,OVC018,0.00,0.00,VWS V14.00,2013-11-24 09:52:00,
2013-11-24 05:52:00,31.6,29.0,30.38,NNW,340,0.0,0.0,90,0.00,,OVC018,0.00,0.00,VWS V14.00,2013-11-24 10:52:00,
2013-11-24 06:52:00,30.0,28.0,30.42,NNW,340,0.0,0.0,92,0.00,,OVC018,0.00,0.00,VWS V14.00,2013-11-24 11:52:00,
2013-11-24 07:52:00,33.1,26.4,30.45,North,3,3.0,3.0,76,0.00,,OVC018,0.00,60.00,VWS V14.00,2013-11-24 12:52:00,
2013-11-24 08:52:00,36.3,23.8,30.49,NE,36,0.0,7.0,60,0.00,,OVC018,0.00,236.00,VWS V14.00,2013-11-24 13:52:00,
2013-11-24 09:52:00,39.4,22.8,30.53,North,355,0.0,4.0,51,0.00,,OVC018,0.00,415.00,VWS V14.00,2013-11-24 14:52:00,
2013-11-24 10:52:00,42.3,20.3,30.54,North,359,4.0,9.0,41,0.00,,OVC018,0.00,566.00,VWS V14.00,2013-11-24 15:52:00,
2013-11-24 11:52:00,44.4,20.4,30.51,NW,323,2.0,6.0,38,0.00,,OVC018,0.00,621.00,VWS V14.00,2013-11-24 16:52:00,
2013-11-24 12:52:00,45.6,20.9,30.48,NE,41,7.0,7.0,37,0.00,,OVC018,0.00,628.00,VWS V14.00,2013-11-24 17:52:00,
2013-11-24 13:52:00,46.7,20.5,30.47,NNE,31,2.0,5.0,35,0.00,,OVC018,0.00,580.00,VWS V14.00,2013-11-24 18:52:00,
2013-11-24 14:52:00,47.0,20.1,30.47,NW,307,0.0,8.0,34,0.00,,OVC018,0.00,466.00,VWS V14.00,2013-11-24 19:52:00,
2013-11-24 15:52:00,47.8,18.6,30.47,ENE,69,2.0,4.0,31,0.00,,OVC018,0.00,304.00,VWS V14.00,2013-11-24 20:52:00,
2013-11-24 16:52:00,45.5,18.1,30.50,ENE,77,0.0,2.0,33,0.00,,OVC018,0.00,19.00,VWS V14.00,2013-11-24 21:52:00,
2013-11-24 17:52:00,39.0,21.5,30.53,ENE,59,0.0,0.0,49,0.00,,OVC018,0.00,0.00,VWS V14.00,2013-11-24 22:52:00,
2013-11-24 18:52:00,36.4,22.6,30.57,ENE,59,0.0,0.0,57,0.00,,OVC018,0.00,0.00,VWS V14.00,2013-11-24 23:52:00,
2013-11-24 19:52:00,34.1,23.2,30.58,ENE,59,0.0,0.0,64,0.00,,OVC018,0.00,0.00,VWS V14.00,2013-11-25 00:52:00,
2013-11-24 20:52:00,31.9,21.1,30.58,ENE,59,0.0,0.0,64,0.00,,OVC018,0.00,0.00,VWS V14.00,2013-11-25 01:52:00,
2013-11-24 21:52:00,32.6,19.9,30.58,NE,51,0.0,0.0,59,0.00,,OVC018,0.00,0.00,VWS V14.00,2013-11-25 02:52:00,
2013-11-24 22:52:00,30.0,20.7,30.60,ENE,60,0.0,0.0,68,0.00,,OVC018,0.00,0.00,VWS V14.00,2013-11-25 03:52:00,
2013-11-24 23:52:00,31.6,22.3,30.60,ESE,103,0.0,0.0,68,0.00,,OVC018,0.00,0.00,VWS V14.00,2013-11-25 04:52:00,